Hourly Weather Murray

Today, 27 September, Monday

Time Temperature Precipitation Wind Pressure Humidity
00:00 +20°C° 0 mm 2 mps 650 mmHg 23%
01:00 +20°C° 0 mm 2 mps 650 mmHg 23%
02:00 +20°C° 0 mm 2 mps 649 mmHg 23%
03:00 +19°C° 0 mm 2 mps 649 mmHg 24%
04:00 +19°C° 0 mm 2 mps 649 mmHg 25%
05:00 +19°C° 0 mm 2 mps 649 mmHg 25%
06:00 +20°C° 0 mm 2 mps 650 mmHg 24%
07:00 +21°C° 0 mm 2 mps 650 mmHg 22%
08:00 +24°C° 0 mm 2 mps 651 mmHg 20%
09:00 +26°C° 0 mm 2 mps 651 mmHg 19%
10:00 +28°C° 0 mm 2 mps 651 mmHg 17%
11:00 +30°C° 0 mm 2 mps 651 mmHg 15%
12:00 +31°C° 0 mm 3 mps 651 mmHg 14%
13:00 +33°C° 0 mm 3 mps 650 mmHg 13%
14:00 +33°C° 0 mm 3 mps 650 mmHg 13%
15:00 +33°C° 0 mm 3 mps 649 mmHg 13%
16:00 +31°C° 0 mm 3 mps 649 mmHg 14%
17:00 +30°C° 0 mm 2 mps 648 mmHg 14%
18:00 +28°C° 0 mm 2 mps 648 mmHg 17%
19:00 +25°C° 0 mm 2 mps 647 mmHg 20%
20:00 +23°C° 0 mm 1 mps 647 mmHg 22%
21:00 +23°C° 0 mm 2 mps 647 mmHg 22%
22:00 +23°C° 0 mm 2 mps 646 mmHg 22%
23:00 +21°C° 0 mm 3 mps 646 mmHg 23%

Tomorrow, 28 September, Tuesday

Time Temperature Precipitation Wind Pressure Humidity
00:00 +21°C° 0 mm 3 mps 646 mmHg 25%
01:00 +21°C° 0 mm 4 mps 646 mmHg 28%
02:00 +20°C° 0 mm 4 mps 645 mmHg 31%
03:00 +20°C° 0 mm 4 mps 645 mmHg 35%
04:00 +19°C° 0 mm 4 mps 645 mmHg 40%
05:00 +19°C° 0 mm 4 mps 645 mmHg 45%
06:00 +20°C° 0 mm 3 mps 645 mmHg 44%
07:00 +21°C° 0 mm 3 mps 645 mmHg 43%
08:00 +22°C° 0 mm 3 mps 646 mmHg 42%
09:00 +22°C° 0.1 mm 4 mps 646 mmHg 42%
10:00 +22°C° 0.1 mm 5 mps 646 mmHg 42%
11:00 +23°C° 0.1 mm 5 mps 647 mmHg 42%
12:00 +21°C° 0.2 mm 5 mps 647 mmHg 46%
13:00 +19°C° 0.2 mm 6 mps 647 mmHg 49%
14:00 +16°C° 0.2 mm 6 mps 647 mmHg 53%
15:00 +16°C° 0 mm 5 mps 647 mmHg 51%
16:00 +16°C° 0 mm 5 mps 647 mmHg 49%
17:00 +15°C° 0 mm 4 mps 647 mmHg 46%
18:00 +15°C° 0 mm 4 mps 647 mmHg 45%
19:00 +14°C° 0 mm 3 mps 647 mmHg 43%
20:00 +13°C° 0 mm 3 mps 648 mmHg 42%
21:00 +12°C° 0 mm 3 mps 648 mmHg 41%
22:00 +12°C° 0 mm 3 mps 648 mmHg 40%
23:00 +11°C° 0 mm 3 mps 648 mmHg 39%

Day after tomorrow, 29 September, Wednesday

Time Temperature Precipitation Wind Pressure Humidity
00:00 +10°C° 0 mm 2 mps 648 mmHg 41%
01:00 +10°C° 0 mm 2 mps 648 mmHg 42%
02:00 +9°C° 0 mm 2 mps 648 mmHg 44%
03:00 +9°C° 0 mm 2 mps 648 mmHg 46%
04:00 +8°C° 0 mm 2 mps 648 mmHg 49%
05:00 +8°C° 0 mm 2 mps 648 mmHg 51%
06:00 +8°C° 0 mm 2 mps 649 mmHg 48%
07:00 +9°C° 0 mm 2 mps 650 mmHg 45%
08:00 +10°C° 0 mm 2 mps 650 mmHg 42%
09:00 +11°C° 0 mm 3 mps 651 mmHg 36%
10:00 +13°C° 0 mm 3 mps 651 mmHg 30%
11:00 +14°C° 0 mm 4 mps 651 mmHg 25%
12:00 +15°C° 0 mm 4 mps 651 mmHg 23%
13:00 +15°C° 0 mm 4 mps 651 mmHg 21%
14:00 +17°C° 0 mm 4 mps 652 mmHg 20%
15:00 +16°C° 0 mm 3 mps 652 mmHg 21%
16:00 +16°C° 0 mm 3 mps 652 mmHg 22%
17:00 +14°C° 0 mm 3 mps 652 mmHg 23%
18:00 +13°C° 0 mm 2 mps 652 mmHg 29%
19:00 +10°C° 0 mm 2 mps 652 mmHg 34%
20:00 +9°C° 0 mm 1 mps 652 mmHg 40%
21:00 +9°C° 0 mm 1 mps 652 mmHg 39%
22:00 +9°C° 0 mm 1 mps 652 mmHg 38%
23:00 +8°C° 0 mm 1 mps 653 mmHg 37%

30 September, Thursday

Time Temperature Precipitation Wind Pressure Humidity
00:00 +8°C° 0 mm 1 mps 653 mmHg 39%
01:00 +8°C° 0 mm 1 mps 653 mmHg 40%
02:00 +8°C° 0 mm 1 mps 653 mmHg 41%
03:00 +7°C° 0 mm 1 mps 653 mmHg 41%
04:00 +7°C° 0 mm 1 mps 653 mmHg 41%
05:00 +7°C° 0 mm 1 mps 653 mmHg 42%
06:00 +8°C° 0 mm 1 mps 654 mmHg 37%
07:00 +10°C° 0 mm 1 mps 654 mmHg 32%
08:00 +11°C° 0 mm 0 mps 655 mmHg 27%
09:00 +14°C° 0 mm 1 mps 655 mmHg 23%
10:00 +16°C° 0 mm 1 mps 655 mmHg 20%
11:00 +18°C° 0 mm 2 mps 655 mmHg 16%
12:00 +18°C° 0 mm 2 mps 655 mmHg 15%
13:00 +19°C° 0 mm 3 mps 655 mmHg 13%
14:00 +20°C° 0 mm 3 mps 655 mmHg 12%
15:00 +19°C° 0 mm 3 mps 654 mmHg 14%
16:00 +19°C° 0 mm 3 mps 654 mmHg 15%
17:00 +18°C° 0 mm 2 mps 654 mmHg 17%
18:00 +16°C° 0 mm 2 mps 653 mmHg 20%
19:00 +13°C° 0 mm 1 mps 653 mmHg 24%
20:00 +11°C° 0 mm 1 mps 653 mmHg 27%
21:00 +11°C° 0 mm 1 mps 653 mmHg 27%
22:00 +11°C° 0 mm 1 mps 653 mmHg 26%
23:00 +11°C° 0 mm 1 mps 652 mmHg 25%

1 October, Friday

Time Temperature Precipitation Wind Pressure Humidity
00:00 +11°C° 0 mm 1 mps 652 mmHg 24%
01:00 +10°C° 0 mm 1 mps 652 mmHg 23%
02:00 +9°C° 0 mm 2 mps 652 mmHg 22%
03:00 +10°C° 0 mm 1 mps 652 mmHg 22%
04:00 +10°C° 0 mm 1 mps 652 mmHg 22%
05:00 +10°C° 0 mm 1 mps 652 mmHg 22%
06:00 +11°C° 0 mm 1 mps 653 mmHg 21%
07:00 +13°C° 0 mm 1 mps 653 mmHg 19%
08:00 +14°C° 0 mm 1 mps 653 mmHg 18%
09:00 +18°C° 0 mm 1 mps 653 mmHg 16%
10:00 +20°C° 0 mm 1 mps 654 mmHg 13%
11:00 +22°C° 0 mm 1 mps 654 mmHg 11%
12:00 +23°C° 0 mm 2 mps 654 mmHg 10%
13:00 +24°C° 0 mm 2 mps 653 mmHg 10%
14:00 +25°C° 0 mm 2 mps 653 mmHg 9%
15:00 +24°C° 0 mm 2 mps 653 mmHg 10%
16:00 +23°C° 0 mm 2 mps 653 mmHg 11%
17:00 +23°C° 0 mm 2 mps 652 mmHg 12%
18:00 +19°C° 0 mm 2 mps 652 mmHg 14%
19:00 +18°C° 0 mm 1 mps 652 mmHg 17%
20:00 +15°C° 0 mm 1 mps 652 mmHg 19%
21:00 +14°C° 0 mm 1 mps 652 mmHg 19%
22:00 +14°C° 0 mm 1 mps 652 mmHg 19%
23:00 +14°C° 0 mm 1 mps 652 mmHg 19%

2 October, Saturday

Time Temperature Precipitation Wind Pressure Humidity
00:00 +14°C° 0 mm 1 mps 652 mmHg 19%
01:00 +14°C° 0 mm 1 mps 652 mmHg 19%
02:00 +14°C° 0 mm 2 mps 652 mmHg 19%
03:00 +14°C° 0 mm 1 mps 652 mmHg 20%
04:00 +13°C° 0 mm 1 mps 653 mmHg 20%
05:00 +13°C° 0 mm 1 mps 653 mmHg 20%
06:00 +15°C° 0 mm 1 mps 653 mmHg 19%
07:00 +16°C° 0 mm 1 mps 654 mmHg 18%
08:00 +19°C° 0 mm 1 mps 654 mmHg 16%
09:00 +21°C° 0 mm 1 mps 655 mmHg 14%
10:00 +23°C° 0 mm 1 mps 655 mmHg 13%
11:00 +25°C° 0 mm 1 mps 655 mmHg 11%
12:00 +25°C° 0 mm 2 mps 655 mmHg 11%
13:00 +26°C° 0 mm 2 mps 655 mmHg 11%
14:00 +27°C° 0 mm 3 mps 655 mmHg 11%
15:00 +26°C° 0 mm 3 mps 654 mmHg 12%
16:00 +25°C° 0 mm 2 mps 654 mmHg 13%
17:00 +24°C° 0 mm 2 mps 654 mmHg 14%
18:00 +21°C° 0 mm 2 mps 654 mmHg 17%
19:00 +19°C° 0 mm 1 mps 654 mmHg 20%
20:00 +16°C° 0 mm 1 mps 653 mmHg 23%
21:00 +16°C° 0 mm 1 mps 653 mmHg 23%
22:00 +15°C° 0 mm 1 mps 653 mmHg 24%
23:00 +15°C° 0 mm 1 mps 653 mmHg 24%
Show more

We Need Your Consent

Meteoprog and our Service Providers may store and access personal data such as cookies, device identifiers or other similar technologies on your device and process such data to personalise content and ads, as well as provide social media features and to analyse the traffic.

  • Store and/or access information on your device

    Cookies, device identifiers or other information can be stored or accessed on your device for the purposes indicated above.

  • Personalised ads and content, ad and content measurement, audience insights, and products development

    Ads and content can be personalised based on a profile. More data can be added to better personalise ads and content. Ad and content performance can be measured. Insights about the audience who saw the ads and content can be derived. Such data can be used to develop or improve user’s experience, systems and software.

By clicking ‘I Agree’ you will allow the use of indicated cookies, device identifiers, web beacons or other similar technologies. Your settings can be changed in the browser on your device.

For certain purposes, legitimate interests may be relied on, rather than consent. You can read more about this in our Privacy and Cookie Policy.